Showing default

TIME FLIES, 64564

Orbit data source: Space-Track

TIME FLIES, 64564 is a payload satellite owned by TrustPoint (US) in SSO that was launched on Mon, 23 Jun 2025 UTC via an FALCON 9 launch vehicle from the Air Force Western Test Range (AFWTR). Payload-class satellites include a variety of spacecraft equipped with specific instruments for various scientific and technological missions. These include communications satellites like Starlink; space stations such as the ISS; scientific satellites like the Hubble; Earth observation satellites from companies like Planet Labs, Umbra, and HawkEye 360; GPS; miniature CubeSats for education and research; and military/defense satellites.

Loading next visibility...
Identifier
64564, 2025-135AN
Orbit
SSO
Country
Flag of USUS
Related business
Manufacturer
TrustPoint
Mission
Operational Commercial Navigation
Bus & Motor
CUBESAT 3U?, Unknown motor
Mass
4 kg wet, 4 kg dry
Launch date (UTC)
2025-06-23 (1 year ago)
Launch vehicle
FALCON 9
Launch site
Air Force Western Test Range (AFWTR)
Object type
Payload
Rocket body
Debris
Shape & HBR
Box, 0.1 m
Radar Cross Section
0.035 m², Medium (>0.1 m² and < 1m²)

Expand to show TLE details & history
Last TLE update: 10 hours ago

TLE from 10 hours ago
0 TIME FLIES
1 64564U 25135AN  26178.29642729  .00002837  00000-0  26486-3 0  9995
2 64564  97.7719 292.6620 0001220 201.3855 158.7315 14.94985307 55418
Epoch: 2026-06-27T07:06Z
TLE epoch observation values (Epoch: 2026-06-27T07:06:51.317Z)
Latitude
-0.00002°
Longitude
-89.46443°
Altitude
586.256 km
Speed
7.567 km/s
True Right ascension
19h 30m 38s
True Declination
0° 00' 00"
Sunlit
Object was in full shadow at epoch
Visualization orbit readout
Latitude
Unknown
Longitude
Unknown
Altitude
Unknown
Speed
Unknown
Apparent Right ascension
Unknown
Apparent Declination
Unknown
Sunlit
N/A
Visualization observer readout
Local Sidereal Time
04:19:13
Azimuth
Unknown
Elevation
Unknown
Doppler factor
Unknown
Orbital elements
Apogee altitude
580.282 km
Perigee altitude
578.585 km
Semi-major axis
6,957.571 km
Eccentricity
0.00012
Inclination
97.7719°
RAAN
292.662°
Arg. of periapsis
201.3855°
True anomaly
158.73657°
Mean anomaly
158.7315°
Eccentric anomaly
158.73404°
Mean motion
3.73987 °/min
Orbital period
96.26 mins
BSTAR
0.00026486
Loading maneuver chart data...
Computing Atmospheric mass density...
Loading historical data...
Loading historical data...
Loading historical data...
Loading historical data...
Loading historical data...
Loading historical data...
Loading historical data...

Documentation

Showing up to 5 results
|